Flag for Tajikistan Weather past 2 weeks in Dushanbe, Tajikistan

Now
82 °F

Sunny.


Feels Like: 80 °F
Forecast: 65 / 91 °F
Wind: 8 mph from West

Location: Dushanbe Airport

Current Time: Jul 31, 2014 at 7:39:39 PM

Latest Report: Jul 31, 2014 at 7:00 PM


Visibility: N/A

Pressure: 29.77 "Hg

Humidity: 25%

Dew point: 43 °F

Location of DushanbeLocation

Historic Weather in Dushanbe — Graph

°F

Dushanbe temperature yesterday

Maximum temperature yesterday: 91 °F (at 2:00 PM)
Minimum temperature yesterday: 72 °F (at 5:30 AM)
Average temperature yesterday: 82 °F

Past Weeks' High & Low Weather Summary

 TemperatureHumidityPressure
High104 °F (Jul 22, 4:30 PM)65% (Jul 30, 5:30 AM)29.89 "Hg (Jul 30, 5:30 AM)
Low64 °F (Jul 18, 4:30 AM)9% (Jul 21, 1:00 PM)29.56 "Hg (Jul 22, 4:00 PM)
Average83 °F30%29.72 "Hg
* Reported Jul 16 6:00 PM — Jul 31 6:30 PM, Dushanbe, Weather by CustomWeather, © 2014

Note: Actual official high and low records may vary slightly from our data, if they occured in-between our weather recording intervals... More about our weather records

Advertising

Dushanbe weather history for previous 24 hours

 ConditionsComfort  
Time TempWeatherWind HumidityBarometerVisibility
6:30 PM
Jul 31
84 °FSunny.8 mph23%29.77 "HgN/A
6:00 PM88 °FSunny.10 mph18%29.77 "HgN/A
5:30 PM88 °FSunny.8 mph17%29.77 "HgN/A
5:00 PM90 °FSunny.8 mph18%29.77 "HgN/A
4:30 PM91 °FSunny.8 mph16%29.77 "HgN/A
4:00 PM91 °FSunny.8 mph15%29.77 "HgN/A
3:30 PM91 °FSunny.1 mph13%29.77 "HgN/A
3:00 PM91 °FSunny.6 mph12%29.80 "HgN/A
2:30 PM90 °FSunny.6 mph13%29.80 "HgN/A
2:00 PM90 °FSunny.3 mph14%29.83 "HgN/A
1:30 PM90 °FPassing clouds.3 mph15%29.83 "HgN/A
1:00 PM90 °FPassing clouds.3 mph15%29.83 "HgN/A
12:30 PM88 °FPassing clouds.3 mph16%29.86 "HgN/A
12:00 PM86 °FScattered clouds.1 mph19%29.86 "HgN/A
11:30 AM86 °FPartly sunny.1 mph19%29.86 "HgN/A
11:00 AM84 °FPartly sunny.1 mph27%29.89 "HgN/A
10:00 AM81 °FScattered clouds.1 mph30%29.89 "Hg5 mi
9:30 AM79 °FScattered clouds.3 mph32%29.89 "Hg6 mi
9:00 AM77 °FPartly sunny.1 mph39%29.89 "Hg6 mi
8:30 AM75 °FPartly sunny.1 mph41%29.89 "Hg5 mi
7:30 AM70 °FPartly sunny.No wind57%29.89 "HgN/A
7:00 AM68 °FPartly sunny.1 mph56%29.89 "HgN/A
6:30 AM70 °FPartly sunny.1 mph50%29.86 "HgN/A
6:00 AM68 °FPartly sunny.1 mph46%29.86 "HgN/A
5:30 AM66 °FScattered clouds.3 mph60%29.86 "HgN/A
5:00 AM68 °FPassing clouds.No wind49%29.86 "HgN/A
4:30 AM68 °FPassing clouds.No wind49%29.83 "Hg6 mi
4:00 AM70 °FPassing clouds.No wind43%29.83 "HgN/A
3:30 AM70 °FPassing clouds.No wind40%29.83 "HgN/A
3:00 AM70 °FPassing clouds.No wind46%29.83 "HgN/A
2:30 AM68 °FPassing clouds.3 mph56%29.83 "Hg5 mi
2:00 AM70 °FPassing clouds.3 mph50%29.80 "Hg6 mi
1:00 AM75 °FPassing clouds.3 mph31%29.80 "HgN/A
12:30 AM77 °FPassing clouds.1 mph32%29.80 "HgN/A
12:00 AM77 °FPassing clouds.1 mph32%29.80 "Hg5 mi
11:30 PM
Jul 30
77 °FPassing clouds.1 mph34%29.80 "Hg5 mi
10:30 PM75 °FPassing clouds.3 mph39%29.80 "HgN/A
10:00 PM77 °FPassing clouds.1 mph34%29.77 "HgN/A
9:30 PM79 °FOvercast.1 mph32%29.77 "Hg6 mi
9:00 PM81 °FOvercast.3 mph26%29.77 "Hg6 mi
8:30 PM81 °FOvercast.3 mph24%29.74 "Hg6 mi
8:00 PM82 °FOvercast.6 mph23%29.74 "Hg5 mi
7:30 PM82 °FPartly sunny.6 mph23%29.74 "Hg5 mi
7:00 PM84 °FPartly sunny.8 mph25%29.74 "Hg5 mi
Weather by CustomWeather, © 2014

See weather overviewHow to use our weather pages